Location: Unspecified
(0.0000°N, 0.0000°E)
Time: 08:11:37
(UTC+00:00)

Vanguard 2 - Visible Passes

Search period start: 01 October 2014 00:00
Search period end: 11 October 2014 00:00
Orbit: 553 x 2947 km, 32.9° (Epoch: 30 September)

Date Brightness Start Highest point End Pass type
(mag) Time Alt. Az. Time Alt. Az. Time Alt. Az.
01 Oct 8.9 19:09:30 10° SSW 19:12:38 17° SSE 19:12:38 17° SSE visible
02 Oct 11.3 03:55:31 10° NNE 03:58:19 11° NNE 04:01:23 10° NE visible
02 Oct 8.5 19:27:54 10° SSW 19:31:11 28° S 19:31:11 28° S visible
03 Oct 11.2 04:12:26 10° N 04:18:39 15° NNE 04:26:11 10° ENE visible
03 Oct 8.6 19:46:52 10° SW 19:49:46 32° SW 19:49:46 32° SW visible
04 Oct 11.1 04:30:27 10° NNW 04:38:40 21° NE 04:49:19 10° ENE visible
04 Oct 9.3 20:06:18 10° WSW 20:08:21 23° WSW 20:08:21 23° WSW visible
05 Oct 11.0 04:48:47 10° NNW 04:58:25 29° NE 05:11:30 10° E visible
05 Oct 8.6 18:15:57 10° SSW 18:21:37 31° SSE 18:25:24 12° E visible
05 Oct 10.1 20:26:16 10° W 20:26:57 13° W 20:26:57 13° W visible
06 Oct 10.9 05:07:21 10° NNW 05:17:56 39° NE 05:32:55 10° E visible
06 Oct 7.7 18:34:54 10° SW 18:41:09 56° SSE 18:44:00 21° ENE visible
07 Oct 10.9 03:21:09 10° N 03:26:02 14° NE 03:31:59 10° ENE visible
07 Oct 7.4 18:54:15 10° WSW 19:00:27 78° NW 19:02:36 31° NE visible
08 Oct 10.8 03:38:47 10° N 03:45:43 21° NE 03:55:02 10° E visible
08 Oct 8.3 19:14:04 10° WSW 19:19:35 40° NW 19:21:12 29° N visible
09 Oct 10.6 03:57:07 10° NNW 04:05:09 30° NE 04:16:58 10° E visible
09 Oct 9.1 19:34:29 10° W 19:38:39 21° NW 19:39:47 19° NNW visible
10 Oct 10.4 04:15:41 11° NNW 04:24:25 41° NE 04:38:09 10° ESE visible
10 Oct 9.9 19:56:25 10° NW 19:57:47 11° NW 19:58:21 11° NNW visible
